Sierra Vista, AZ

7:46 AM MST on April 22, 2018 (GMT -0700)
Sierra Vista Municipal-Libby Army Air Field

Weather History for KFHU - November, 2010

Change the Weather History Date:

Wednesday, November 3, 2010

  Actual Average Record
Temperature  
Mean Temperature 64 °F -  
Max Temperature 77 °F 69 °F 82 °F (1997)
Min Temperature 50 °F 46 °F 33 °F (2004)
Degree Days  
Heating Degree Days 2    
Growing Degree Days 14 (Base 50)    
Moisture  
Dew Point 30 °F    
Average Humidity 30    
Maximum Humidity 41    
Minimum Humidity 21    
Precipitation  
Precipitation 0.00 in - - ()
Sea Level Pressure  
Sea Level Pressure 30.17 in    
Wind  
Wind Speed 11 mph (ESE)    
Max Wind Speed 24 mph    
Max Gust Speed 31 mph    
Visibility 10 miles    
Events      
Averages and records for this station are not official NWS values.
T = Trace of Precipitation, MM = Missing Value Source: NWS Daily Summary

Daily Weather History Graph

Daily Weather History Graph

Search for Another Location

Airport or City:

Astronomy

Nov. 03, 2010 Rise Set
Actual Time 6:39 AM MST 5:30 PM MST
Civil Twilight 6:13 AM MST 5:55 PM MST
Nautical Twilight 5:45 AM MST 6:24 PM MST
Astronomical Twilight 5:16 AM MST 6:52 PM MST
Moon 3:50 AM MST (11/3) 3:36 PM MST (11/3)
Length of Visible Light 11h 41m
Length of Day
10h 51m
Waning Crescent, 8% of the Moon is Illuminated
Nov 3
Waning Crescent
Nov 5
New
Nov 13
First Quarter
Nov 21
Full
Nov 28
Last Quarter

Hourly Weather History & Observations

Time (MST) Temp. Dew Point Humidity Pressure Visibility Wind Dir Wind Speed Gust Speed Precip Events Conditions
12:56 AM 51.1 °F 26.1 °F 38% 30.14 in 10.0 mi ESE 9.2 mph - N/A   Clear
1:56 AM 55.0 °F 25.0 °F 31% 30.12 in 10.0 mi SE 8.1 mph - N/A   Clear
2:56 AM 52.0 °F 25.0 °F 35% 30.13 in 10.0 mi Variable 6.9 mph - N/A   Clear
3:56 AM 54.0 °F 25.0 °F 33% 30.14 in 10.0 mi WSW 4.6 mph - N/A   Clear
4:56 AM 50.0 °F 25.0 °F 38% 30.17 in 10.0 mi ESE 8.1 mph - N/A   Clear
5:55 AM 51.8 °F 24.8 °F 35% 30.19 in 10.0 mi East 6.9 mph - N/A   Clear
6:55 AM 50.0 °F 24.8 °F 37% 30.21 in 70.0 mi Calm Calm - N/A   Clear
7:55 AM 57.2 °F 28.4 °F 33% 30.23 in 70.0 mi East 4.6 mph - N/A   Clear
8:55 AM 66.2 °F 28.4 °F 24% 30.23 in 70.0 mi ESE 11.5 mph - N/A   Clear
9:55 AM 69.8 °F 28.4 °F 21% 30.22 in 70.0 mi East 20.7 mph - N/A   Clear
10:55 AM 73.4 °F 32.0 °F 22% 30.20 in 70.0 mi ESE 24.2 mph 31.1 mph N/A   Clear
11:55 AM 73.4 °F 33.8 °F 23% 30.19 in 70.0 mi East 21.9 mph 28.8 mph N/A   Clear
12:55 PM 75.2 °F 33.8 °F 22% 30.15 in 50.0 mi East 17.3 mph 24.2 mph N/A   Clear
1:55 PM 77.0 °F 35.6 °F 22% 30.12 in 50.0 mi East 18.4 mph 28.8 mph N/A   Clear
2:55 PM 77.0 °F 35.6 °F 22% 30.13 in 50.0 mi ESE 16.1 mph 25.3 mph N/A   Clear
3:55 PM 75.2 °F 33.8 °F 22% 30.12 in 50.0 mi East 18.4 mph 26.5 mph N/A   Clear
4:55 PM 71.6 °F 33.8 °F 25% 30.14 in 50.0 mi East 18.4 mph 25.3 mph N/A   Clear
5:55 PM 66.2 °F 32.0 °F 28% 30.17 in 50.0 mi ESE 13.8 mph - N/A   Clear
6:55 PM 62.6 °F 32.0 °F 32% 30.21 in 10.0 mi ESE 10.4 mph - N/A   Clear
7:55 PM 59.0 °F 32.0 °F 36% 30.20 in 10.0 mi ESE 13.8 mph - N/A   Clear
8:55 PM 57.2 °F 33.8 °F 41% 30.19 in 10.0 mi ESE 10.4 mph - N/A   Clear
9:55 PM 59.0 °F 33.8 °F 39% 30.19 in 10.0 mi ESE 13.8 mph - N/A   Clear
10:55 PM 60.8 °F 32.0 °F 34% 30.17 in 10.0 mi SE 19.6 mph - N/A   Clear
11:56 PM 60.1 °F 30.9 °F 33% 30.18 in 10.0 mi SE 15.0 mph - N/A   Clear